When you browse on this site, cookies collect data to enhance your experience and personalize the content and advertising you see.
Visit our Privacy Policy to learn more. By continuing to use the site, you agree to this use of cookies and data.
EN

Hourly Weather Aliağa

Today, 13 August, Thursday

Time Temperature Precipitation Wind Pressure Humidity
00:00 +25°C° 0 mm 3 mps 753 mmHg 48%
01:00 +24°C° 0 mm 3 mps 753 mmHg 49%
02:00 +23°C° 0 mm 2 mps 753 mmHg 51%
03:00 +22°C° 0 mm 3 mps 753 mmHg 51%
04:00 +22°C° 0 mm 3 mps 753 mmHg 51%
05:00 +22°C° 0 mm 3 mps 753 mmHg 51%
06:00 +25°C° 0 mm 4 mps 753 mmHg 46%
07:00 +27°C° 0 mm 4 mps 753 mmHg 41%
08:00 +29°C° 0 mm 5 mps 754 mmHg 37%
09:00 +33°C° 0 mm 6 mps 754 mmHg 32%
10:00 +35°C° 0 mm 6 mps 754 mmHg 27%
11:00 +38°C° 0 mm 7 mps 754 mmHg 23%
12:00 +39°C° 0 mm 7 mps 753 mmHg 21%
13:00 +39°C° 0 mm 7 mps 753 mmHg 20%
14:00 +40°C° 0 mm 7 mps 753 mmHg 20%
15:00 +39°C° 0 mm 7 mps 753 mmHg 22%
16:00 +38°C° 0 mm 8 mps 753 mmHg 24%
17:00 +38°C° 0 mm 8 mps 752 mmHg 27%
18:00 +34°C° 0 mm 8 mps 753 mmHg 33%
19:00 +32°C° 0 mm 7 mps 753 mmHg 39%
20:00 +28°C° 0 mm 6 mps 753 mmHg 46%
21:00 +27°C° 0 mm 6 mps 753 mmHg 50%
22:00 +26°C° 0 mm 5 mps 753 mmHg 54%
23:00 +25°C° 0 mm 5 mps 753 mmHg 57%

Tomorrow, 14 August, Friday

Time Temperature Precipitation Wind Pressure Humidity
00:00 +25°C° 0 mm 5 mps 753 mmHg 61%
01:00 +23°C° 0 mm 4 mps 753 mmHg 64%
02:00 +22°C° 0 mm 4 mps 753 mmHg 67%
03:00 +22°C° 0 mm 4 mps 753 mmHg 69%
04:00 +21°C° 0 mm 4 mps 753 mmHg 72%
05:00 +21°C° 0 mm 5 mps 753 mmHg 74%
06:00 +23°C° 0 mm 5 mps 753 mmHg 64%
07:00 +26°C° 0 mm 6 mps 753 mmHg 53%
08:00 +28°C° 0 mm 6 mps 753 mmHg 42%
09:00 +32°C° 0 mm 6 mps 753 mmHg 35%
10:00 +34°C° 0 mm 7 mps 753 mmHg 28%
11:00 +36°C° 0 mm 7 mps 753 mmHg 21%
12:00 +38°C° 0 mm 7 mps 753 mmHg 20%
13:00 +38°C° 0 mm 7 mps 753 mmHg 18%
14:00 +39°C° 0 mm 8 mps 752 mmHg 17%
15:00 +38°C° 0 mm 8 mps 752 mmHg 17%
16:00 +38°C° 0 mm 8 mps 752 mmHg 18%
17:00 +37°C° 0 mm 8 mps 751 mmHg 19%
18:00 +33°C° 0 mm 7 mps 752 mmHg 22%
19:00 +29°C° 0 mm 6 mps 752 mmHg 26%
20:00 +26°C° 0 mm 5 mps 752 mmHg 30%
21:00 +25°C° 0 mm 5 mps 752 mmHg 35%
22:00 +23°C° 0 mm 4 mps 752 mmHg 40%
23:00 +22°C° 0 mm 4 mps 753 mmHg 45%

Day after tomorrow, 15 August, Saturday

Time Temperature Precipitation Wind Pressure Humidity
00:00 +21°C° 0 mm 4 mps 753 mmHg 48%
01:00 +20°C° 0 mm 4 mps 752 mmHg 51%
02:00 +20°C° 0 mm 3 mps 752 mmHg 54%
03:00 +19°C° 0 mm 3 mps 752 mmHg 57%
04:00 +19°C° 0 mm 4 mps 752 mmHg 59%
05:00 +18°C° 0 mm 4 mps 752 mmHg 62%
06:00 +21°C° 0 mm 4 mps 752 mmHg 53%
07:00 +23°C° 0 mm 5 mps 752 mmHg 44%
08:00 +27°C° 0 mm 5 mps 752 mmHg 35%
09:00 +29°C° 0 mm 6 mps 752 mmHg 28%
10:00 +33°C° 0 mm 6 mps 752 mmHg 21%
11:00 +36°C° 0 mm 7 mps 752 mmHg 14%
12:00 +38°C° 0 mm 7 mps 752 mmHg 13%
13:00 +39°C° 0 mm 7 mps 752 mmHg 11%
14:00 +40°C° 0 mm 7 mps 751 mmHg 10%
15:00 +39°C° 0 mm 7 mps 751 mmHg 13%
16:00 +38°C° 0 mm 8 mps 750 mmHg 16%
17:00 +37°C° 0 mm 8 mps 750 mmHg 19%
18:00 +33°C° 0 mm 7 mps 750 mmHg 26%
19:00 +29°C° 0 mm 6 mps 750 mmHg 34%
20:00 +26°C° 0 mm 5 mps 751 mmHg 42%
21:00 +25°C° 0 mm 5 mps 751 mmHg 46%
22:00 +23°C° 0 mm 4 mps 751 mmHg 51%
23:00 +21°C° 0 mm 4 mps 751 mmHg 56%

16 August, Sunday

Time Temperature Precipitation Wind Pressure Humidity
00:00 +21°C° 0 mm 4 mps 751 mmHg 59%
01:00 +20°C° 0 mm 4 mps 751 mmHg 61%
02:00 +20°C° 0 mm 4 mps 751 mmHg 64%
03:00 +19°C° 0 mm 4 mps 751 mmHg 67%
04:00 +19°C° 0 mm 4 mps 750 mmHg 71%
05:00 +18°C° 0 mm 4 mps 750 mmHg 74%
06:00 +20°C° 0 mm 4 mps 751 mmHg 66%
07:00 +23°C° 0 mm 4 mps 751 mmHg 57%
08:00 +26°C° 0 mm 5 mps 751 mmHg 49%
09:00 +28°C° 0 mm 5 mps 751 mmHg 41%
10:00 +32°C° 0 mm 6 mps 751 mmHg 32%
11:00 +35°C° 0 mm 6 mps 751 mmHg 24%
12:00 +36°C° 0 mm 7 mps 751 mmHg 22%
13:00 +38°C° 0 mm 7 mps 751 mmHg 21%
14:00 +39°C° 0 mm 8 mps 751 mmHg 19%
15:00 +38°C° 0 mm 8 mps 751 mmHg 21%
16:00 +37°C° 0 mm 8 mps 750 mmHg 24%
17:00 +34°C° 0 mm 8 mps 750 mmHg 26%
18:00 +32°C° 0 mm 8 mps 751 mmHg 34%
19:00 +28°C° 0 mm 7 mps 751 mmHg 41%
20:00 +24°C° 0 mm 6 mps 751 mmHg 49%
21:00 +23°C° 0 mm 6 mps 751 mmHg 55%
22:00 +22°C° 0 mm 5 mps 752 mmHg 62%
23:00 +21°C° 0 mm 5 mps 752 mmHg 69%

17 August, Monday

Time Temperature Precipitation Wind Pressure Humidity
00:00 +20°C° 0 mm 5 mps 752 mmHg 71%
01:00 +20°C° 0 mm 5 mps 752 mmHg 74%
02:00 +19°C° 0 mm 5 mps 752 mmHg 76%
03:00 +19°C° 0 mm 5 mps 752 mmHg 79%
04:00 +19°C° 0 mm 5 mps 752 mmHg 82%
05:00 +17°C° 0 mm 5 mps 752 mmHg 85%
06:00 +20°C° 0 mm 5 mps 752 mmHg 76%
07:00 +22°C° 0 mm 6 mps 752 mmHg 68%
08:00 +24°C° 0 mm 6 mps 752 mmHg 59%
09:00 +27°C° 0 mm 6 mps 752 mmHg 51%
10:00 +30°C° 0 mm 6 mps 752 mmHg 43%
11:00 +33°C° 0 mm 6 mps 752 mmHg 35%
12:00 +34°C° 0 mm 6 mps 752 mmHg 33%
13:00 +35°C° 0 mm 7 mps 751 mmHg 31%
14:00 +38°C° 0 mm 7 mps 751 mmHg 29%
15:00 +36°C° 0 mm 7 mps 751 mmHg 31%
16:00 +35°C° 0 mm 7 mps 750 mmHg 32%
17:00 +35°C° 0 mm 7 mps 750 mmHg 34%
18:00 +32°C° 0 mm 6 mps 750 mmHg 41%
19:00 +29°C° 0 mm 6 mps 751 mmHg 47%
20:00 +26°C° 0 mm 5 mps 751 mmHg 53%
21:00 +25°C° 0 mm 5 mps 751 mmHg 59%
22:00 +23°C° 0 mm 4 mps 751 mmHg 65%
23:00 +22°C° 0 mm 4 mps 751 mmHg 70%

18 August, Tuesday

Time Temperature Precipitation Wind Pressure Humidity
00:00 +21°C° 0 mm 4 mps 751 mmHg 73%
01:00 +20°C° 0 mm 3 mps 751 mmHg 76%
02:00 +20°C° 0 mm 3 mps 751 mmHg 78%
03:00 +20°C° 0 mm 3 mps 751 mmHg 81%
04:00 +19°C° 0 mm 3 mps 751 mmHg 84%
05:00 +19°C° 0 mm 3 mps 751 mmHg 86%
06:00 +21°C° 0 mm 3 mps 751 mmHg 77%
07:00 +23°C° 0 mm 4 mps 751 mmHg 69%
08:00 +25°C° 0 mm 4 mps 751 mmHg 60%
09:00 +28°C° 0 mm 4 mps 751 mmHg 51%
10:00 +32°C° 0 mm 4 mps 751 mmHg 42%
11:00 +34°C° 0 mm 4 mps 751 mmHg 33%
12:00 +36°C° 0 mm 4 mps 750 mmHg 29%
13:00 +37°C° 0 mm 4 mps 750 mmHg 26%
14:00 +38°C° 0 mm 4 mps 750 mmHg 23%
15:00 +37°C° 0 mm 4 mps 749 mmHg 24%
16:00 +37°C° 0 mm 4 mps 749 mmHg 25%
17:00 +36°C° 0 mm 4 mps 749 mmHg 25%
18:00 +33°C° 0 mm 4 mps 749 mmHg 31%
19:00 +29°C° 0 mm 3 mps 749 mmHg 38%
20:00 +27°C° 0 mm 2 mps 749 mmHg 44%
21:00 +26°C° 0 mm 2 mps 749 mmHg 48%
22:00 +25°C° 0 mm 2 mps 749 mmHg 51%
23:00 +24°C° 0 mm 2 mps 749 mmHg 55%
Show more